Flag for U.S.A. Weather past 2 weeks in Chula Vista, California, U.S.A.

Now
72 °F

Clear.


Feels Like: 77 °F
Forecast: 67 / 86 °F
Wind: No wind

Location: Brown Field Municipal Airport

Current Time: Aug 28, 2014 at 3:02:34 AM

Latest Report: Aug 28, 2014 at 1:53 AM


Visibility: 10 mi

Pressure: 30.00 "Hg

Humidity: 53%

Dew point: 54 °F

Location of Chula VistaLocation

Historic Weather in Chula Vista — Graph

°F

Chula Vista temperature yesterday

Maximum temperature yesterday: 90 °F (at 12:53 PM)
Minimum temperature yesterday: 63 °F (at 4:53 AM)
Average temperature yesterday: 77 °F

Past Weeks' High & Low Weather Summary

 TemperatureHumidityPressure
High90 °F (Aug 27, 12:53 PM)97% (Aug 18, 12:53 AM)30.02 "Hg (Aug 18, 12:53 AM)
Low59 °F (Aug 23, 5:53 AM)29% (Aug 27, 12:53 PM)29.81 "Hg (Aug 18, 4:53 PM)
Average72 °F72%29.92 "Hg
* Reported Aug 13 1:53 AM — Aug 28 1:53 AM, Chula Vista, Weather by CustomWeather, © 2014

Note: Actual official high and low records may vary slightly from our data, if they occured in-between our weather recording intervals... More about our weather records

Advertising

Chula Vista weather history for previous 24 hours

 ConditionsComfort  
Time TempWeatherWind HumidityBarometerVisibility
1:53 AM
Aug 28
72 °FClear.No wind53%30.00 "Hg10 mi
12:53 AM74 °FClear.3 mph43%30.00 "Hg10 mi
11:53 PM
Aug 27
75 °FClear.3 mph39%30.00 "Hg10 mi
10:53 PM76 °FClear.3 mph35%29.99 "Hg10 mi
9:53 PM76 °FClear.5 mph43%29.99 "Hg10 mi
8:53 PM77 °FClear.No wind45%29.99 "Hg10 mi
7:53 PM76 °FSunny.6 mph50%29.98 "Hg10 mi
6:53 PM80 °FSunny.6 mph42%29.97 "Hg10 mi
5:53 PM84 °FSunny.7 mph35%29.96 "Hg10 mi
4:53 PM86 °FSunny.9 mph29%29.97 "Hg10 mi
3:53 PM86 °FSunny.9 mph35%29.97 "Hg10 mi
2:53 PM85 °FSunny.12 mph37%29.98 "Hg10 mi
1:53 PM87 °FSunny.14 mph35%30.00 "Hg10 mi
12:53 PM90 °FSunny.9 mph29%30.00 "Hg10 mi
11:53 AM89 °FSunny.8 mph34%30.01 "Hg10 mi
10:53 AM88 °FSunny.6 mph35%30.02 "Hg10 mi
9:53 AM85 °FSunny.3 mph40%30.02 "Hg10 mi
8:53 AM79 °FSunny.No wind47%30.02 "Hg10 mi
7:53 AM75 °FSunny.No wind58%30.01 "Hg10 mi
6:53 AM65 °FClear.No wind78%30.00 "Hg10 mi
5:53 AM66 °FClear.3 mph75%29.99 "Hg10 mi
4:53 AM63 °FClear.3 mph90%29.98 "Hg10 mi
3:53 AM66 °FClear.No wind84%29.98 "Hg10 mi
Weather by CustomWeather, © 2014

See weather overviewHow to use our weather pages